Hourly Data Report for September 13, 2017

All times are specified in Local Standard Time (LST). Add 1 hour to adjust for Daylight Saving Time where and when it is observed.

ST. PETERS
PRINCE EDWARD ISLAND

46°27'01.000" N
62°34'33.000" W
29.70 m
8300562
71310
ZSP

Download Data

Hourly Data (September 2017)
Hourly Data Report for September 13, 2017
Temp Definition
°C
Dew Point Temp Definition
°C
Rel Hum Definition
%
Wind Dir Definition
10's deg

Wind Spd Definition
km/h
Visibility Definition
km
Stn Press Definition
kPa
Hmdx Definition


Wind Chill Definition


Weather Definition


TIME
00:00 9.7 8.9 95 24 6   100.20     LegendNANA
01:00 9.7 8.7 94 24 7   100.19     LegendNANA
02:00 9.6 8.5 93 28 4   100.16     LegendNANA
03:00 11.2 9.1 87 28 4   100.16     LegendNANA
04:00 13.4 10.8 84 31 9   100.19     LegendNANA
05:00 12.9 10.0 83 32 5   100.19     LegendNANA
06:00 11.9 9.8 87 31 5   100.22     LegendNANA
07:00 12.4 10.4 88 25 5   100.30     LegendNANA
08:00 16.5 12.3 76 30 9   100.30     LegendNANA
09:00 17.6 11.7 68 27 6   100.31     LegendNANA
10:00 19.0 12.5 66 27 9   100.31     LegendNANA
11:00 19.2 14.1 72 29 12   100.30     LegendNANA
12:00 20.8 13.2 62 27 18   100.28     LegendNANA
13:00 22.0 13.7 59 28 17   100.23 25   LegendNANA
14:00 22.2 12.7 55 28 19   100.19 25   LegendNANA
15:00 22.9 13.6 56 28 19   100.19 26   LegendNANA
16:00 22.8 13.9 57 28 16   100.21 26   LegendNANA
17:00 22.9 12.1 50 27 14   100.21 25   LegendNANA
18:00 20.9 11.9 56 24 9   100.23     LegendNANA
19:00 18.4 12.9 70 19 12   100.26     LegendNANA
20:00 18.0 13.6 75 20 15   100.30     LegendNANA
21:00 18.4 13.6 74 22 18   100.30     LegendNANA
22:00 17.5 13.5 77 21 17   100.30     LegendNANA
23:00 16.8 13.1 79 21 16   100.29     LegendNANA

Notes on Data Quality.

Legend

  • E = Estimated
  • M = Missing
  • NA = Not Available
  • ‡ = Partner data that is not subject to review by the National Climate Archives
Date modified: